This is the latest recevied weather packets stored in our database for station/object N3OZD-10. If no packets are shown the sender has not sent any weather packets the latest 10 day(s).
| Time | Temp. | Humidity | Pressure | Rain* | Wind** | Luminosity | Snow |
|---|---|---|---|---|---|---|---|
| 1777476758 | 13.33° C | 72% | 1014.5 hPa | 0 mm | - | - | - |
| 1777476456 | 13.33° C | 75% | 1014.4 hPa | 0 mm | - | - | - |
| 1777476162 | 12.78° C | 73% | 1014.5 hPa | 0 mm | - | - | - |
| 1777475856 | 12.78° C | 73% | 1014.5 hPa | 0 mm | - | - | - |
| 1777475556 | 12.78° C | 73% | 1014.5 hPa | 0 mm | - | - | - |
| 1777475257 | 12.78° C | 73% | 1014.5 hPa | 0 mm | - | - | - |
| 1777474959 | 12.78° C | 75% | 1014.6 hPa | 0 mm | - | - | - |
| 1777474656 | 12.78° C | 76% | 1014.5 hPa | 0 mm | - | - | - |
| 1777474361 | 12.78° C | 75% | 1014.6 hPa | 0 mm | - | - | - |
| 1777474057 | 12.78° C | 75% | 1014.6 hPa | 0 mm | - | - | - |
| 1777473757 | 12.78° C | 75% | 1014.5 hPa | 0 mm | - | - | - |
| 1777473458 | 12.78° C | 75% | 1014.2 hPa | 0 mm | - | - | - |
| 1777472856 | 12.78° C | 75% | 1014.3 hPa | 0 mm | - | - | - |
| 1777472560 | 12.22° C | 74% | 1014.3 hPa | 0 mm | - | - | - |
| 1777472256 | 12.78° C | 74% | 1014.5 hPa | 0 mm | - | - | - |
| 1777471957 | 12.78° C | 74% | 1014.5 hPa | 0 mm | - | - | - |
| 1777471657 | 12.78° C | 74% | 1014.4 hPa | 0 mm | - | - | - |
| 1777471357 | 12.78° C | 74% | 1014.3 hPa | 0 mm | - | - | - |
| 1777471056 | 12.22° C | 74% | 1014.4 hPa | 0 mm | - | - | - |
| 1777470761 | 12.22° C | 74% | 1014.4 hPa | 0 mm | - | - | - |
| 1777470456 | 12.22° C | 75% | 1014.3 hPa | 0 mm | - | - | - |
| 1777470157 | 12.22° C | 73% | 1014.3 hPa | 0 mm | - | - | - |
| 1777469857 | 12.22° C | 74% | 1014.5 hPa | 0 mm | - | - | - |
| 1777469562 | 12.22° C | 73% | 1014.6 hPa | 0 mm | - | - | - |
| 1777469256 | 12.22° C | 73% | 1014.7 hPa | 0 mm | - | - | - |
* Rain latest hour (hover to see other rain measurements)
** Current wind speed in m/s (hover to see current wind gust speed)